FW0639 Weather Reports


time (UTC)temp
C
wind
direction
speed
KPH
gust
KPH
rain 1hr
cm
rain 24hr
cm
rain mn
cm
humidity
%
barometer
mb
20240420154600 0 122 1.6 9.7 0.00 0.00 0.00 61 1035.1
20240420152344 0 130 3.2 12.9 0.00 0.00 0.00 67 1035.3
20240420151313 -1 143 1.6 3.2 0.00 0.00 0.00 69 1035.4
20240420150337 -1 145 1.6 6.4 0.00 0.00 0.00 71 1035.5
20240420145319 -1 182 0.0 6.4 0.00 0.00 0.00 75 1035.5
20240420143225 -3 247 1.6 4.8 0.00 0.00 0.00 79 1035.6
20240420142203 -3 109 0.0 3.2 0.00 0.00 0.00 81 1035.7
20240420141211 -4 248 0.0 4.8 0.00 0.00 0.00 82 1035.6
20240420140220 -5 240 1.6 4.8 0.00 0.00 0.00 83 1035.7
20240420134037 -6 230 1.6 4.8 0.00 0.00 0.00 84 1035.7
20240420133007 -7 229 1.6 4.8 0.00 0.00 0.00 85 1035.7
20240420130843 -7 245 0.0 4.8 0.00 0.00 0.00 86 1035.7
20240420124756 -8 246 0.0 4.8 0.00 0.00 0.00 86 1035.7
20240420123721 -8 246 1.6 3.2 0.00 0.00 0.00 86 1035.7
20240420122704 -8 246 0.0 1.6 0.00 0.00 0.00 86 1035.7
20240420121703 -8 246 0.0 0.0 0.00 0.00 0.00 86 1035.8
20240420120641 -8 246 0.0 0.0 0.00 0.00 0.00 86 1035.7
20240420115608 -8 246 0.0 0.0 0.00 0.00 0.00 85 1035.7
20240420114633 -7 245 0.0 0.0 0.00 0.00 0.00 85 1035.6
20240420113606 -7 244 0.0 0.0 0.00 0.00 0.00 85 1035.7
20240420112630 -7 244 0.0 0.0 0.00 0.00 0.00 85 1035.8
20240420111622 -7 244 0.0 0.0 0.00 0.00 0.00 85 1035.8
20240420110641 -7 244 0.0 0.0 0.00 0.00 0.00 85 1035.9
20240420105643 -7 244 0.0 0.0 0.00 0.00 0.00 85 1035.9
20240420104635 -7 244 0.0 0.0 0.00 0.00 0.00 84 1035.9
20240420103604 -7 244 0.0 0.0 0.00 0.00 0.00 84 1035.9
20240420102612 -7 244 0.0 0.0 0.00 0.00 0.00 84 1036.0
20240420100510 -7 244 0.0 0.0 0.00 0.00 0.00 84 1036.0
20240420095446 -7 244 0.0 0.0 0.00 0.00 0.00 85 1035.9
20240420094446 -7 244 0.0 0.0 0.00 0.00 0.00 85 1035.8
20240420093430 -7 244 0.0 0.0 0.00 0.00 0.00 85 1035.8
20240420092444 -7 244 0.0 0.0 0.00 0.00 0.00 86 1035.8
20240420091509 -7 244 0.0 0.0 0.00 0.00 0.00 86 1035.8
20240420090517 -7 244 0.0 0.0 0.00 0.00 0.00 86 1035.8
20240420085508 -7 244 0.0 0.0 0.00 0.00 0.00 86 1035.8
20240420084447 -7 242 0.0 0.0 0.00 0.00 0.00 85 1035.8
20240420083432 -7 241 0.0 0.0 0.00 0.00 0.00 86 1035.9
20240420082449 -7 232 0.0 0.0 0.00 0.00 0.00 86 1035.9
20240420081425 -6 234 0.0 0.0 0.00 0.00 0.00 85 1036.0
20240420080424 -6 237 0.0 0.0 0.00 0.00 0.00 85 1036.0
20240420075441 -6 238 0.0 0.0 0.00 0.00 0.00 85 1036.1
20240420074442 -6 238 0.0 0.0 0.00 0.00 0.00 85 1036.2
20240420073422 -6 239 0.0 0.0 0.00 0.00 0.00 85 1036.3
20240420072431 -6 239 0.0 0.0 0.00 0.00 0.00 85 1036.3
20240420071445 -6 238 0.0 0.0 0.00 0.00 0.00 84 1036.4
20240420070432 -6 238 0.0 0.0 0.00 0.00 0.00 84 1036.5
20240420065444 -6 236 0.0 0.0 0.00 0.00 0.00 84 1036.5
20240420064423 -6 233 0.0 0.0 0.00 0.00 0.00 84 1036.4
20240420063417 -5 227 0.0 0.0 0.00 0.00 0.00 83 1036.4
20240420062355 -5 226 0.0 0.0 0.00 0.00 0.00 82 1036.5
20240420061416 -5 211 0.0 0.0 0.00 0.00 0.00 82 1036.4
20240420060410 -5 205 0.0 0.0 0.00 0.00 0.00 82 1036.4
20240420055406 -5 205 0.0 0.0 0.00 0.00 0.00 81 1036.5
20240420054406 -5 241 0.0 0.0 0.00 0.00 0.00 81 1036.5
20240420053341 -4 247 0.0 0.0 0.00 0.00 0.00 80 1036.5
20240420052328 -4 247 0.0 0.0 0.00 0.00 0.00 79 1036.5
20240420051311 -4 247 0.0 0.0 0.00 0.00 0.00 78 1036.5
20240420050303 -3 247 0.0 0.0 0.00 0.00 0.00 77 1036.4
20240420045320 -3 247 0.0 0.0 0.00 0.00 0.00 76 1036.4
20240420042055 -2 247 0.0 0.0 0.00 0.00 0.00 73 1036.4
20240420041029 -2 247 0.0 0.0 0.00 0.00 0.00 73 1036.4
20240420040008 -2 247 0.0 0.0 0.00 0.00 0.00 72 1036.4
20240420034937 -2 247 0.0 0.0 0.00 0.00 0.00 71 1036.4
20240420033939 -2 247 0.0 0.0 0.00 0.00 0.00 72 1036.3
20240420031752 -1 248 0.0 0.0 0.00 0.00 0.00 69 1036.3
20240420030730 -1 248 0.0 0.0 0.00 0.00 0.00 70 1036.3
20240420025749 -1 248 0.0 0.0 0.00 0.00 0.00 69 1036.2
20240420024744 -1 248 0.0 0.0 0.00 0.00 0.00 68 1036.2
20240420023725 -1 248 0.0 0.0 0.00 0.00 0.00 67 1036.0
20240420022701 -1 248 0.0 0.0 0.00 0.00 0.00 65 1035.9
20240420021705 -1 247 0.0 4.8 0.00 0.00 0.00 65 1035.8
20240420015609 0 247 1.6 8.0 0.00 0.00 0.00 62 1035.7
20240420014628 0 248 1.6 8.0 0.00 0.00 0.00 60 1035.6
20240420013645 0 248 1.6 9.7 0.00 0.00 0.00 56 1035.5
20240420010334 0 247 1.6 4.8 0.00 0.00 0.00 54 1035.7
20240420005307 0 247 1.6 4.8 0.00 0.00 0.00 53 1035.8
20240420004237 0 247 1.6 9.7 0.00 0.00 0.00 54 1035.8
20240420003230 0 26 1.6 12.9 0.00 0.00 0.00 57 1036.0
20240420001127 0 32 3.2 8.0 0.00 0.00 0.00 58 1036.2
20240419233858 -1 212 1.6 6.4 0.00 0.00 0.00 64 1036.2
20240419232841 0 212 1.6 11.3 0.00 0.00 0.00 63 1036.1
20240419230705 0 212 1.6 14.5 0.00 0.00 0.00 61 1036.1
20240419225724 0 197 1.6 8.0 0.00 0.00 0.00 60 1036.1
20240419224658 0 196 0.0 8.0 0.00 0.00 0.00 62 1036.0
20240419223641 0 196 1.6 8.0 0.00 0.00 0.00 58 1036.1
20240419221544 -1 236 1.6 14.5 0.00 0.00 0.00 62 1036.0
20240419220518 -1 266 1.6 1.6 0.00 0.00 0.00 62 1036.0
20240419215531 -1 270 1.6 9.7 0.00 0.00 0.00 66 1036.0
20240419214539 -1 264 1.6 11.3 0.00 0.00 0.00 66 1036.0
20240419212406 -1 243 3.2 11.3 0.00 0.00 0.00 64 1036.0
20240419211338 -1 243 1.6 12.9 0.00 0.00 0.00 65 1035.9
20240419204020 -1 305 1.6 4.8 0.00 0.00 0.00 68 1036.1
20240419203013 -1 308 3.2 16.1 0.00 0.00 0.00 68 1036.1
20240419202019 -1 230 1.6 16.1 0.00 0.00 0.00 66 1036.0
20240419200951 -1 228 1.6 9.7 0.00 0.00 0.00 66 1036.1
20240419195946 -1 228 3.2 16.1 0.00 0.00 0.00 66 1036.1
20240419195001 -1 234 3.2 14.5 0.00 0.03 0.00 66 1036.1
20240419193933 -1 235 3.2 12.9 0.00 0.03 0.00 63 1036.2
20240419191831 -1 243 3.2 12.9 0.00 0.03 0.00 66 1036.2
20240419190819 -1 238 1.6 11.3 0.00 0.03 0.00 67 1036.1
20240419185750 -1 240 1.6 12.9 0.00 0.05 0.00 68 1036.1
20240419184727 -2 240 1.6 11.3 0.00 0.05 0.00 69 1036.0
20240419182535 -2 237 3.2 14.5 0.00 0.05 0.00 69 1036.2
20240419181538 -2 251 3.2 14.5 0.00 0.05 0.00 67 1036.2
20240419180538 -2 216 4.8 19.3 0.00 0.08 0.00 67 1036.1
20240419174417 -2 248 3.2 12.9 0.00 0.08 0.00 69 1036.1
20240419173357 -2 280 3.2 12.9 0.00 0.08 0.00 71 1036.1
20240419172334 -2 280 3.2 19.3 0.00 0.08 0.00 68 1036.0
20240419171309 -2 227 3.2 11.3 0.00 0.10 0.00 67 1036.0
20240419170302 -2 236 3.2 19.3 0.00 0.13 0.00 68 1035.9
20240419165240 -2 221 3.2 19.3 0.00 0.13 0.00 68 1036.0
20240419164239 -2 249 3.2 12.9 0.00 0.13 0.00 71 1036.0
20240419162153 -2 230 1.6 12.9 0.00 0.13 0.00 73 1036.0
20240419161132 -3 226 4.8 14.5 0.00 0.15 0.00 75 1035.9
20240419160157 -3 238 3.2 14.5 0.00 0.15 0.00 76 1035.8